Location: Bittelbronn
(48.4454°N, 8.5870°E)
Time: 21:16:05
(UTC+00:00)

Cosmos 2082 Rocket - Pass Details

Date: 23 May 2024
Orbit: 832 x 853 km, 71.0° (Epoch: 16 June)

Event Time Altitude Azimuth Distance (km) Brightness Sun altitude
Exits shadow 00:07:00 38° 178° (S) 1,270 2.6 -20.2°
Maximum altitude 00:09:04 64° 113° (ESE) 944 2.3 -20.1°
Drops below altitude 10° 00:14:44 10° 33° (NNE) 2,492 5.7 -19.9°
Sets 00:17:12 0° 31° (NNE) 3,431 6.7 -19.8°
